| time (UTC) | temp C | wind direction | speed KPH | gust KPH | rain 1hr cm | rain 24hr cm | rain mn cm | humidity % | barometer mb |
| 20260506115122 | 15 | 108 | 0.0 | 0.0 | 0.00 | 0.00 | 1.30 | 98 | 1010.8 |
| 20260506114533 | 15 | 226 | 0.0 | 0.0 | 0.00 | 0.00 | 1.30 | 98 | 1010.8 |
| 20260506113948 | 15 | 87 | 0.0 | 0.0 | 0.00 | 0.00 | 1.30 | 98 | 1010.4 |
| 20260506112733 | 15 | 105 | 0.0 | 0.0 | 0.00 | 0.00 | 1.27 | 98 | 1010.1 |
| 20260506111515 | 15 | 180 | 0.0 | 0.0 | 0.00 | 0.00 | 1.27 | 98 | 1010.4 |
| 20260506110913 | 15 | 251 | 0.0 | 0.0 | 0.00 | 0.00 | 1.27 | 98 | 1010.8 |
| 20260506105711 | 15 | 229 | 0.0 | 0.0 | 0.00 | 0.00 | 1.22 | 98 | 1010.1 |
| 20260506105146 | 15 | 16 | 0.0 | 0.0 | 0.00 | 0.00 | 1.19 | 98 | 1010.1 |
| 20260506103921 | 15 | 252 | 0.0 | 0.0 | 0.00 | 0.00 | 1.14 | 98 | 1009.4 |
| 20260506103351 | 15 | 216 | 0.0 | 0.0 | 0.00 | 0.00 | 1.12 | 98 | 1009.4 |
| 20260506102708 | 15 | 196 | 0.0 | 0.0 | 0.00 | 0.00 | 1.12 | 98 | 1009.1 |
| 20260506102109 | 15 | 156 | 0.0 | 0.0 | 0.00 | 0.00 | 1.12 | 98 | 1008.8 |
| 20260506100950 | 15 | 61 | 3.2 | 3.2 | 0.00 | 0.00 | 1.12 | 98 | 1009.1 |
| 20260506095711 | 15 | 202 | 0.0 | 0.0 | 0.00 | 0.00 | 1.12 | 98 | 1009.1 |
| 20260506095149 | 15 | 153 | 0.0 | 0.0 | 0.00 | 0.00 | 1.12 | 98 | 1009.1 |
| 20260506094538 | 15 | 105 | 0.0 | 0.0 | 0.00 | 0.00 | 1.12 | 98 | 1009.4 |
| 20260506093321 | 15 | 218 | 0.0 | 0.0 | 0.00 | 0.00 | 1.04 | 98 | 1009.1 |
| 20260506092747 | 15 | 186 | 0.0 | 0.0 | 0.00 | 0.00 | 0.99 | 98 | 1009.1 |
| 20260506092113 | 15 | 183 | 0.0 | 0.0 | 0.00 | 0.00 | 0.97 | 98 | 1009.1 |
| 20260506090323 | 15 | 199 | 0.0 | 0.0 | 0.00 | 0.00 | 0.76 | 98 | 1009.1 |
| 20260506085736 | 15 | 216 | 0.0 | 0.0 | 0.00 | 0.00 | 0.71 | 98 | 1009.8 |
| 20260506085114 | 15 | 198 | 0.0 | 0.0 | 0.00 | 0.00 | 0.71 | 98 | 1009.1 |
| 20260506083926 | 15 | 207 | 0.0 | 0.0 | 0.00 | 0.00 | 0.71 | 97 | 1009.4 |
| 20260506083337 | 15 | 187 | 0.0 | 0.0 | 0.00 | 0.00 | 0.66 | 97 | 1009.4 |
| 20260506082737 | 15 | 230 | 0.0 | 0.0 | 0.00 | 0.00 | 0.61 | 97 | 1009.8 |
| 20260506082142 | 15 | 107 | 0.0 | 0.0 | 0.00 | 0.00 | 0.53 | 97 | 1009.4 |
| 20260506081514 | 15 | 39 | 0.0 | 0.0 | 0.00 | 0.00 | 0.48 | 97 | 1009.8 |
| 20260506080930 | 15 | 4 | 0.0 | 3.2 | 0.00 | 0.00 | 0.46 | 97 | 1009.4 |
| 20260506080318 | 15 | 188 | 0.0 | 0.0 | 0.00 | 0.00 | 0.33 | 97 | 1009.8 |
| 20260506073309 | 15 | 168 | 0.0 | 0.0 | 0.00 | 0.00 | 0.20 | 97 | 1010.1 |
| 20260506072709 | 14 | 211 | 0.0 | 0.0 | 0.00 | 0.00 | 0.20 | 97 | 1010.1 |
| 20260506072143 | 14 | 130 | 0.0 | 0.0 | 0.00 | 0.00 | 0.20 | 97 | 1010.1 |
| 20260506071550 | 14 | 128 | 0.0 | 0.0 | 0.00 | 0.00 | 0.15 | 97 | 1010.4 |
| 20260506070907 | 14 | 239 | 0.0 | 0.0 | 0.00 | 0.00 | 0.10 | 97 | 1010.8 |
| 20260506070330 | 14 | 231 | 0.0 | 0.0 | 0.00 | 0.00 | 0.10 | 96 | 1010.4 |
| 20260506062127 | 14 | 231 | 0.0 | 0.0 | 0.00 | 0.00 | 0.03 | 96 | 1010.4 |
| 20260506061510 | 14 | 227 | 0.0 | 0.0 | 0.00 | 0.00 | 0.03 | 96 | 1010.4 |
| 20260506060342 | 14 | 210 | 0.0 | 0.0 | 0.00 | 0.00 | 0.00 | 96 | 1010.4 |
| 20260506050949 | 15 | 226 | 0.0 | 0.0 | 0.00 | 0.00 | 0.00 | 95 | 1010.4 |
| 20260506050336 | 15 | 230 | 0.0 | 0.0 | 0.00 | 0.00 | 0.00 | 95 | 1010.1 |
| 20260506044516 | 15 | 229 | 0.0 | 0.0 | 0.00 | 0.00 | 0.00 | 94 | 1010.8 |
| 20260506043920 | 15 | 220 | 0.0 | 0.0 | 0.00 | 0.00 | 0.00 | 94 | 1010.8 |
| 20260506042725 | 15 | 210 | 0.0 | 0.0 | 0.00 | 0.00 | 0.00 | 94 | 1010.8 |
| 20260506042128 | 15 | 228 | 0.0 | 0.0 | 0.00 | 0.00 | 0.00 | 93 | 1011.1 |
| 20260506041543 | 15 | 234 | 0.0 | 0.0 | 0.00 | 0.00 | 0.00 | 93 | 1011.1 |
| 20260506040349 | 15 | 232 | 0.0 | 0.0 | 0.00 | 0.00 | 0.00 | 92 | 1010.8 |
| 20260506035712 | 15 | 227 | 0.0 | 0.0 | 0.00 | 0.00 | 0.00 | 90 | 1010.8 |
| 20260506035141 | 15 | 227 | 0.0 | 0.0 | 0.00 | 0.00 | 0.00 | 90 | 1010.8 |
| 20260506033948 | 15 | 222 | 0.0 | 0.0 | 0.00 | 0.00 | 0.00 | 89 | 1011.1 |
| 20260506033317 | 16 | 238 | 0.0 | 0.0 | 0.00 | 0.00 | 0.00 | 88 | 1011.1 |
| 20260506032715 | 16 | 220 | 0.0 | 0.0 | 0.00 | 0.00 | 0.00 | 88 | 1011.1 |
| 20260506032147 | 16 | 227 | 0.0 | 0.0 | 0.00 | 0.00 | 0.00 | 89 | 1011.1 |
| 20260506031550 | 16 | 225 | 0.0 | 0.0 | 0.00 | 0.00 | 0.00 | 87 | 1011.1 |
| 20260506030914 | 16 | 213 | 0.0 | 0.0 | 0.00 | 0.00 | 0.00 | 88 | 1010.8 |
| 20260506030347 | 16 | 231 | 0.0 | 0.0 | 0.00 | 0.00 | 0.00 | 87 | 1010.8 |
| 20260506025746 | 16 | 239 | 0.0 | 0.0 | 0.00 | 0.00 | 0.00 | 87 | 1011.1 |
| 20260506025129 | 16 | 224 | 0.0 | 0.0 | 0.00 | 0.00 | 0.00 | 87 | 1011.1 |
| 20260506024518 | 16 | 221 | 0.0 | 0.0 | 0.00 | 0.00 | 0.00 | 87 | 1011.1 |
| 20260506023916 | 16 | 124 | 0.0 | 0.0 | 0.00 | 0.00 | 0.00 | 88 | 1011.1 |
| 20260506023351 | 16 | 223 | 0.0 | 0.0 | 0.00 | 0.00 | 0.00 | 88 | 1011.5 |
| 20260506022716 | 16 | 224 | 0.0 | 0.0 | 0.00 | 0.00 | 0.00 | 88 | 1011.1 |
| 20260506022143 | 16 | 229 | 0.0 | 0.0 | 0.00 | 0.00 | 0.00 | 89 | 1011.1 |
| 20260506021545 | 16 | 219 | 0.0 | 0.0 | 0.00 | 0.00 | 0.00 | 89 | 1011.1 |
| 20260506020946 | 16 | 220 | 0.0 | 0.0 | 0.00 | 0.00 | 0.00 | 89 | 1010.8 |
| 20260506020333 | 16 | 221 | 0.0 | 0.0 | 0.00 | 0.00 | 0.00 | 89 | 1011.1 |
| 20260506015719 | 16 | 227 | 0.0 | 0.0 | 0.00 | 0.00 | 0.00 | 89 | 1010.8 |
| 20260506015150 | 16 | 211 | 0.0 | 0.0 | 0.00 | 0.00 | 0.00 | 89 | 1010.8 |
| 20260506014532 | 16 | 167 | 0.0 | 0.0 | 0.00 | 0.00 | 0.00 | 88 | 1011.1 |
| 20260506013937 | 16 | 234 | 0.0 | 0.0 | 0.00 | 0.00 | 0.00 | 89 | 1011.1 |
| 20260506013345 | 16 | 225 | 0.0 | 0.0 | 0.00 | 0.00 | 0.00 | 88 | 1011.1 |
| 20260506012147 | 17 | 223 | 0.0 | 0.0 | 0.00 | 0.00 | 0.00 | 87 | 1011.1 |
| 20260506010911 | 17 | 241 | 0.0 | 0.0 | 0.00 | 0.00 | 0.00 | 85 | 1011.1 |
| 20260506003348 | 18 | 227 | 0.0 | 0.0 | 0.00 | 0.00 | 0.00 | 79 | 1011.5 |
| 20260506002745 | 18 | 206 | 0.0 | 0.0 | 0.00 | 0.00 | 0.00 | 77 | 1011.5 |
| 20260506002128 | 18 | 239 | 0.0 | 0.0 | 0.00 | 0.00 | 0.00 | 80 | 1011.5 |
| 20260506001517 | 18 | 234 | 0.0 | 0.0 | 0.00 | 0.00 | 0.00 | 79 | 1011.8 |
| 20260506000919 | 19 | 236 | 0.0 | 0.0 | 0.00 | 0.00 | 0.00 | 78 | 1011.8 |
| 20260506000349 | 19 | 236 | 0.0 | 0.0 | 0.00 | 0.00 | 0.00 | 77 | 1011.8 |
| 20260505235739 | 20 | 240 | 0.0 | 0.0 | 0.00 | 0.00 | 0.00 | 75 | 1011.8 |
| 20260505235119 | 20 | 238 | 0.0 | 0.0 | 0.00 | 0.00 | 0.00 | 73 | 1011.8 |
| 20260505234527 | 20 | 233 | 0.0 | 0.0 | 0.00 | 0.00 | 0.00 | 74 | 1011.8 |
| 20260505233341 | 21 | 231 | 0.0 | 0.0 | 0.00 | 0.00 | 0.00 | 72 | 1011.8 |
| 20260505232713 | 21 | 256 | 0.0 | 0.0 | 0.00 | 0.00 | 0.00 | 71 | 1011.8 |
| 20260505232150 | 21 | 231 | 0.0 | 0.0 | 0.00 | 0.00 | 0.00 | 66 | 1011.8 |
| 20260505231552 | 22 | 99 | 0.0 | 0.0 | 0.00 | 0.00 | 0.00 | 65 | 1012.1 |
| 20260505230932 | 22 | 235 | 0.0 | 0.0 | 0.00 | 0.00 | 0.00 | 69 | 1012.1 |
| 20260505230345 | 23 | 212 | 0.0 | 0.0 | 0.00 | 0.00 | 0.00 | 55 | 1012.1 |
| 20260505225114 | 23 | 239 | 0.0 | 0.0 | 0.00 | 0.00 | 0.00 | 48 | 1011.8 |
| 20260505224513 | 23 | 112 | 0.0 | 0.0 | 0.00 | 0.00 | 0.00 | 46 | 1011.8 |
| 20260505223921 | 23 | 156 | 1.6 | 3.2 | 0.00 | 0.00 | 0.00 | 45 | 1011.8 |
| 20260505223312 | 23 | 70 | 3.2 | 3.2 | 0.00 | 0.00 | 0.00 | 45 | 1011.8 |
| 20260505222747 | 24 | 220 | 0.0 | 0.0 | 0.00 | 0.00 | 0.00 | 49 | 1011.8 |
| 20260505222114 | 24 | 305 | 1.6 | 8.0 | 0.00 | 0.00 | 0.00 | 44 | 1011.8 |
| 20260505221516 | 24 | 208 | 0.0 | 3.2 | 0.00 | 0.00 | 0.00 | 44 | 1012.1 |
| 20260505220313 | 25 | 223 | 1.6 | 8.0 | 0.00 | 0.00 | 0.00 | 43 | 1011.8 |
| 20260505215741 | 25 | 316 | 4.8 | 8.0 | 0.00 | 0.00 | 0.00 | 43 | 1011.8 |
| 20260505215149 | 25 | 219 | 4.8 | 8.0 | 0.00 | 0.00 | 0.00 | 44 | 1011.8 |
| 20260505214545 | 25 | 122 | 3.2 | 8.0 | 0.00 | 0.00 | 0.00 | 41 | 1011.8 |
| 20260505213941 | 25 | 227 | 0.0 | 0.0 | 0.00 | 0.00 | 0.00 | 42 | 1012.1 |
| 20260505213316 | 25 | 212 | 6.4 | 11.3 | 0.00 | 0.00 | 0.00 | 42 | 1011.8 |
| 20260505212742 | 25 | 52 | 0.0 | 0.0 | 0.00 | 0.00 | 0.00 | 43 | 1011.8 |
| 20260505212124 | 25 | 163 | 3.2 | 8.0 | 0.00 | 0.00 | 0.00 | 43 | 1011.8 |
| 20260505211527 | 25 | 77 | 4.8 | 11.3 | 0.00 | 0.00 | 0.00 | 43 | 1011.8 |
| 20260505210344 | 25 | 138 | 4.8 | 8.0 | 0.00 | 0.00 | 0.00 | 44 | 1012.5 |
| 20260505205752 | 25 | 85 | 6.4 | 11.3 | 0.00 | 0.00 | 0.00 | 42 | 1012.1 |
| 20260505205138 | 25 | 257 | 1.6 | 3.2 | 0.00 | 0.00 | 0.00 | 47 | 1012.1 |
| 20260505204543 | 25 | 25 | 1.6 | 3.2 | 0.00 | 0.00 | 0.00 | 44 | 1012.5 |
| 20260505203317 | 25 | 359 | 11.3 | 16.1 | 0.00 | 0.00 | 0.00 | 46 | 1012.8 |
| 20260505202754 | 25 | 340 | 9.7 | 11.3 | 0.00 | 0.00 | 0.00 | 44 | 1012.5 |
| 20260505202112 | 24 | 287 | 4.8 | 8.0 | 0.00 | 0.00 | 0.00 | 46 | 1012.8 |
| 20260505201532 | 24 | 19 | 0.0 | 3.2 | 0.00 | 0.00 | 0.00 | 46 | 1012.8 |
| 20260505200940 | 24 | 284 | 0.0 | 0.0 | 0.00 | 0.00 | 0.00 | 46 | 1012.8 |
| 20260505195709 | 24 | 7 | 6.4 | 11.3 | 0.00 | 0.00 | 0.00 | 46 | 1012.8 |
| 20260505194543 | 24 | 334 | 8.0 | 16.1 | 0.00 | 0.00 | 0.00 | 45 | 1013.2 |
| 20260505193940 | 24 | 73 | 4.8 | 8.0 | 0.00 | 0.00 | 0.00 | 45 | 1013.2 |
| 20260505193332 | 24 | 197 | 4.8 | 8.0 | 0.00 | 0.00 | 0.00 | 45 | 1013.5 |
| 20260505192115 | 24 | 37 | 11.3 | 16.1 | 0.00 | 0.00 | 0.00 | 45 | 1013.5 |
| 20260505190931 | 25 | 152 | 8.0 | 11.3 | 0.00 | 0.00 | 0.00 | 46 | 1013.5 |
| 20260505190336 | 25 | 2 | 3.2 | 3.2 | 0.00 | 0.00 | 0.00 | 46 | 1013.5 |
| 20260505185752 | 25 | 59 | 1.6 | 3.2 | 0.00 | 0.00 | 0.00 | 47 | 1013.5 |
| 20260505185140 | 25 | 355 | 6.4 | 8.0 | 0.00 | 0.00 | 0.00 | 46 | 1014.2 |
| 20260505184551 | 25 | 88 | 1.6 | 8.0 | 0.00 | 0.00 | 0.00 | 44 | 1013.8 |
| 20260505183341 | 24 | 219 | 3.2 | 3.2 | 0.00 | 0.00 | 0.00 | 45 | 1014.2 |
| 20260505181514 | 24 | 98 | 6.4 | 11.3 | 0.00 | 0.00 | 0.00 | 44 | 1014.2 |
| 20260505180926 | 24 | 31 | 3.2 | 8.0 | 0.00 | 0.00 | 0.00 | 46 | 1014.2 |
| 20260505180313 | 24 | 320 | 3.2 | 8.0 | 0.00 | 0.00 | 0.00 | 45 | 1014.5 |
| 20260505175713 | 24 | 117 | 6.4 | 8.0 | 0.00 | 0.00 | 0.00 | 45 | 1014.2 |
| 20260505175125 | 24 | 39 | 6.4 | 8.0 | 0.00 | 0.00 | 0.00 | 47 | 1014.2 |
| 20260505174525 | 24 | 52 | 9.7 | 16.1 | 0.00 | 0.00 | 0.00 | 46 | 1014.5 |
| 20260505173933 | 24 | 48 | 8.0 | 11.3 | 0.00 | 0.00 | 0.00 | 47 | 1014.5 |
| 20260505173350 | 24 | 4 | 3.2 | 8.0 | 0.00 | 0.00 | 0.00 | 48 | 1014.5 |
| 20260505172720 | 24 | 49 | 1.6 | 3.2 | 0.00 | 0.00 | 0.00 | 49 | 1014.5 |
| 20260505172131 | 24 | 48 | 11.3 | 19.3 | 0.00 | 0.00 | 0.00 | 46 | 1014.5 |
| 20260505171517 | 24 | 152 | 0.0 | 3.2 | 0.00 | 0.00 | 0.00 | 47 | 1014.5 |
| 20260505170939 | 24 | 210 | 6.4 | 16.1 | 0.00 | 0.00 | 0.00 | 47 | 1014.5 |
| 20260505170328 | 24 | 253 | 11.3 | 16.1 | 0.00 | 0.00 | 0.00 | 48 | 1014.5 |
| 20260505165708 | 24 | 199 | 0.0 | 3.2 | 0.00 | 0.00 | 0.00 | 48 | 1014.5 |
| 20260505165110 | 24 | 351 | 3.2 | 3.2 | 0.00 | 0.00 | 0.00 | 47 | 1014.2 |
| 20260505164512 | 24 | 324 | 6.4 | 11.3 | 0.00 | 0.00 | 0.00 | 47 | 1014.5 |
| 20260505163952 | 24 | 253 | 0.0 | 3.2 | 0.00 | 0.00 | 0.00 | 46 | 1014.5 |
| 20260505163316 | 24 | 111 | 12.9 | 19.3 | 0.00 | 0.00 | 0.00 | 47 | 1014.5 |
| 20260505162718 | 24 | 56 | 6.4 | 8.0 | 0.00 | 0.00 | 0.00 | 47 | 1014.5 |
| 20260505162148 | 24 | 7 | 6.4 | 11.3 | 0.00 | 0.00 | 0.00 | 47 | 1014.9 |
| 20260505161535 | 24 | 57 | 11.3 | 16.1 | 0.00 | 0.00 | 0.00 | 47 | 1014.9 |
| 20260505160921 | 24 | 129 | 3.2 | 8.0 | 0.00 | 0.00 | 0.00 | 48 | 1014.9 |
| 20260505160344 | 24 | 302 | 0.0 | 0.0 | 0.00 | 0.00 | 0.00 | 47 | 1014.9 |
| 20260505153319 | 23 | 210 | 3.2 | 8.0 | 0.00 | 0.00 | 0.00 | 49 | 1014.9 |
| 20260505152748 | 23 | 215 | 6.4 | 8.0 | 0.00 | 0.00 | 0.00 | 50 | 1014.5 |
| 20260505152114 | 23 | 338 | 6.4 | 16.1 | 0.00 | 0.00 | 0.00 | 49 | 1014.9 |
| 20260505151546 | 23 | 7 | 9.7 | 16.1 | 0.00 | 0.00 | 0.00 | 48 | 1014.9 |
| 20260505150942 | 23 | 355 | 8.0 | 11.3 | 0.00 | 0.00 | 0.00 | 52 | 1014.9 |
| 20260505150331 | 23 | 104 | 6.4 | 11.3 | 0.00 | 0.00 | 0.00 | 51 | 1014.9 |
| 20260505140322 | 22 | 0 | 9.7 | 19.3 | 0.00 | 0.00 | 0.00 | 52 | 1014.9 |
| 20260505124537 | 18 | 214 | 0.0 | 0.0 | 0.00 | 0.00 | 0.00 | 58 | 1014.9 |
| 20260505123916 | 17 | 184 | 0.0 | 0.0 | 0.00 | 0.00 | 0.00 | 61 | 1014.9 |
| 20260505123326 | 16 | 72 | 0.0 | 3.2 | 0.00 | 0.00 | 0.00 | 68 | 1014.9 |
| 20260505122715 | 16 | 100 | 4.8 | 8.0 | 0.00 | 0.00 | 0.00 | 71 | 1014.9 |
| 20260505122122 | 15 | 114 | 1.6 | 8.0 | 0.00 | 0.00 | 0.00 | 77 | 1014.9 |
| 20260505120935 | 15 | 170 | 0.0 | 0.0 | 0.00 | 0.00 | 0.00 | 83 | 1014.9 |
| 20260505120316 | 14 | 63 | 6.4 | 11.3 | 0.00 | 0.00 | 0.00 | 84 | 1014.5 |
| 20260505115721 | 14 | 101 | 4.8 | 8.0 | 0.00 | 0.00 | 0.00 | 85 | 1014.9 |